Regional Weather Roundup
Issued by NWS

Home | Current Version | Previous Version | Graphics & Text | Print | Product List | Glossary Off
Versions: 1 2 3 4 5 6 7 8 9 10 11 12 13 14 15 16 17 18 19 20 21 22 23 24 25 26 27 28 29 30 31 32 33 34 35 36 37 38 39 40 41 42 43 44 45 46 47 48 49 50

000
ASUS45 KTFX 292210
RWRMT
MONTANA REGIONAL WEATHER ROUNDUP
NATIONAL WEATHER SERVICE GREAT FALLS MT
400 PM MDT THU SEP 29 2016

NOTE: "FAIR" INDICATES FEW OR NO CLOUDS BELOW 12000 FEET WITH NO
SIGNIFICANT WEATHER AND/OR OBSTRUCTIONS TO VISIBILITY.

MTZ001>007-043-292300-
WEST OF THE DIVIDE

CITY           SKY/WX    TMP DP  RH WIND       PRES   REMARKS
KALISPELL      CLOUDY    72  46  39 CALM      29.99F
MISSOULA       PTSUNNY   78  45  30 CALM      29.98F
BUTTE          CLOUDY    76  38  25 S10       30.12F
MULLAN PASS    SUNNY     69  38  32 VRB5      30.13S
ANACONDA         N/A     81  30  16 SW7       30.06F
DEER LODGE       N/A     82  34  17 CALM      30.07F
EUREKA           N/A     66  45  45 CALM      30.00F
HAMILTON         N/A     72  50  46 W5        30.00F
LIBBY            N/A     72  46  40 CALM      29.96F
PLAINS           N/A     76  47  35 CALM      29.97
RONAN            N/A     72  48  42 N3        30.03F
$$

MTZ008-052>055-292300-
SOUTHWEST MONTANA

CITY           SKY/WX    TMP DP  RH WIND       PRES   REMARKS
BOZEMAN        CLOUDY    78  46  32 CALM      30.09F
DILLON         SUNNY     76  39  26 S6        30.10F
W YELLOWSTONE  CLOUDY    64  41  42 S13G20    30.28S
ENNIS          PTSUNNY   73  43  33 S15G21    30.19F
THREE FORKS      N/A     80  57  45 W2        30.06F
TWIN BRIDGES     N/A     77  40  26 SE5       30.08F
$$

MTZ009-010-012-014-046-048-049-054-292300-
EAST SLOPES AND CENTRAL MONTANA

CITY           SKY/WX    TMP DP  RH WIND       PRES   REMARKS
CUT BANK       SUNNY     71  47  42 E6        30.06S
GREAT FALLS    SUNNY     75  50  41 E9        30.02F
MALMSTROM AFB  SUNNY     75  52  45 NE9       30.02F
HELENA         SUNNY     80  49  33 N3        30.02F
AUGUSTA          N/A     76  45  33 E9        30.05F
BOWMANS CRNR     N/A     77  41  27 S14       30.02F
CHOTEAU          N/A     75  48  38 VRB6      30.05F
CONRAD           N/A     75  53  46 NE1       30.07S
FAIRFIELD        N/A     76  44  31 SE7       30.02F
POWER            N/A     75  46  35 E8        30.02F
RAYNESFORD       N/A     77  50  39 E3        30.04F
$$

MTZ011-013-016-021-045-047-050-051-292300-
NORTH CENTRAL MONTANA

CITY           SKY/WX    TMP DP  RH WIND       PRES   REMARKS
HAVRE          SUNNY     75  52  44 E8        30.00F
LEWISTOWN      SUNNY     80  43  26 W10       30.05F
N BAR RANCH    PTSUNNY   79  48  34 S9        30.11S
CHINOOK          N/A     73  55  53 E5        30.00F
DENTON           N/A     75  54  47 NE10      30.00F
GEYSER           N/A     76  45  33 E9        30.05F
GRASS RANGE    MOCLDY    75  53  45 E5        30.02S
JUDITH GAP       N/A     74  49  40 S14G22    30.09F
ROY              N/A     73  58  59 MISG      30.03F
STANFORD         N/A     76  53  44 NE12      30.06F
WINIFRED         N/A     74  55  51 MISG      30.04F
$$

MTZ017>020-022>027-061-062-292300-
NORTHEAST MONTANA

CITY           SKY/WX    TMP DP  RH WIND       PRES   REMARKS
GLASGOW        SUNNY     78  45  30 S18G28    30.02F
JORDAN           N/A     80  48  32 SE12      30.03F
SIDNEY         SUNNY     80  50  34 SE15G22   30.09F
WOLF POINT     MOSUNNY   84  48  28 SE6       30.04F
PLENTYWOOD       N/A     79  46  31 SE20      30.10F
POPLAR           N/A     81  46  30 SE12G18   30.06S
SCOBEY           N/A     81  44  26 E16       30.06
$$

MTZ028>42-056>058-292300-
SOUTHCENTRAL AND SOUTHEAST MONTANA

CITY           SKY/WX    TMP DP  RH WIND       PRES   REMARKS
BAKER          SUNNY     78  44  29 SE25      30.13F
BILLINGS       CLOUDY    75  47  36 E5        30.07F
LIVINGSTON     PTSUNNY   82  42  24 SW15      30.09F
MILES CITY     CLOUDY    83  47  28 S8        30.04F
BIG TIMBER     SUNNY     77  48  36 SE7       30.12S
HARLOWTON      MOCLDY    75  47  38 E9        30.08F
LAUREL           N/A     77  49  37 NE7       30.05F
ROUNDUP          N/A     83  46  27 S5        29.96S
$$

REGIONAL REPORTS...DAKOTAS

CITY           SKY/WX    TMP DP  RH WIND       PRES   REMARKS
WILLISTON      SUNNY     76  47  35 SE13G22   30.14F
MINOT          SUNNY     71  45  39 SE15G24   30.23F
DICKINSON      SUNNY     74  43  32 SE18G29   30.16F
BEACH            N/A     75  45  33 SE24G30   30.16F
CROSBY           N/A     73  45  35 S20G25    30.17F
WATFORD CITY     N/A     73  45  35 SE18G30   30.16S
BISMARCK       SUNNY     70  46  42 SE18G26   30.26F
GRAND FORKS    MOSUNNY   67  46  47 SE9       30.38F
FARGO          SUNNY     67  45  45 SE10      30.39F
BUFFALO SD       N/A     81  45  28 SE24      30.08F
RAPID CITY     SUNNY     81  44  27 S14       30.18F
$$

REGIONAL REPORTS...WYOMING/IDAHO/WASHINGTON

CITY           SKY/WX    TMP DP  RH WIND       PRES   REMARKS
GILLETTE       SUNNY     80  44  27 SW18G26   30.16R
SHERIDAN       CLOUDY    69  55  60 SE3       30.10F
BUFFALO WY     CLOUDY    76  41  28 W25G37    30.17F
CODY           CLOUDY    79  41  25 S13       30.16F
YELLOWSTONE LA   N/A     60  40  47 CALM      30.37F
IDAHO FALLS    CLOUDY    72  46  39 SW13      30.18S
SALMON         SUNNY     81  45  28 SW9       30.01F
BOISE          MOSUNNY   88  35  15 W6        29.97F
SPOKANE        PTSUNNY   78  46  32 CALM      29.94F
$$

REGIONAL REPORTS...ALBERTA

CITY           SKY/WX    TMP DP  RH WIND       PRES   REMARKS
EDMONTON       PTSUNNY   61  39  44 SE9       30.13F
CALGARY        PTSUNNY   57  43  58 SE3       30.09F
LETHBRIDGE     MOSUNNY   63  48  59 VRB2      30.07F
MEDICINE HAT   MOSUNNY   68  50  52 N8        30.03F
WATERTON GATE    N/A     61  46  59 N7          N/A
MILK RIVER       N/A     70  50  49 N7          N/A
ONEFOUR          N/A     77  48  36 SE3         N/A
$$

REGIONAL REPORTS...SASKATCHEWAN

CITY           SKY/WX    TMP DP  RH WIND       PRES   REMARKS
SWIFT CURRENT  SUNNY     73  52  46 E7        30.04F
REGINA         MOSUNNY   79  39  24 SE22      30.08F
SASKATOON      PTSUNNY   63  50  63 NE14      30.12F
CYPRESS HILLS    N/A     68  50  52 NE5         N/A
VAL MARIE        N/A     75  46  35 S10         N/A
ROCKGLEN         N/A     79  43  27 SE16G24     N/A
ASSINIBOIA       N/A     64  36  34 E6          N/A
$$



USA.gov is the U.S. government's official web portal to all federal, state and local government web resources and services.